Year,Month,Day,Hour,Minute,Value (Times are PST for temperature in C)
2007,04,03,00,00,0.50
2007,04,03,00,01,0.50
2007,04,03,00,02,0.40
2007,04,03,00,03,0.40
2007,04,03,00,04,0.50
2007,04,03,00,05,0.50
2007,04,03,00,06,0.40
2007,04,03,00,07,0.40
2007,04,03,00,08,0.40
2007,04,03,00,09,0.40
2007,04,03,00,10,0.40
2007,04,03,00,11,0.40
2007,04,03,00,12,0.40
2007,04,03,00,13,0.40
2007,04,03,00,14,0.40
2007,04,03,00,15,0.40
2007,04,03,00,16,0.40
2007,04,03,00,17,0.40
2007,04,03,00,18,0.40
2007,04,03,00,19,0.40
2007,04,03,00,20,0.40
2007,04,03,00,21,0.40
2007,04,03,00,22,0.40
2007,04,03,00,23,0.40
2007,04,03,00,24,0.40
2007,04,03,00,25,0.40
2007,04,03,00,26,0.40
2007,04,03,00,27,0.40
2007,04,03,00,28,0.40
2007,04,03,00,29,0.40
2007,04,03,00,30,0.30
2007,04,03,00,31,0.30
2007,04,03,00,32,0.30
2007,04,03,00,33,0.30
2007,04,03,00,34,0.30
2007,04,03,00,35,0.30
2007,04,03,00,36,0.30
2007,04,03,00,37,0.30
2007,04,03,00,38,0.30
2007,04,03,00,39,0.30
2007,04,03,00,40,0.30
2007,04,03,00,41,0.30
2007,04,03,00,42,0.30
2007,04,03,00,43,0.30
2007,04,03,00,44,0.30
2007,04,03,00,45,0.30
2007,04,03,00,46,0.30
2007,04,03,00,47,0.30
2007,04,03,00,48,0.30
2007,04,03,00,49,0.30
2007,04,03,00,50,0.30
2007,04,03,00,51,0.30
2007,04,03,00,52,0.30
2007,04,03,00,53,0.30
2007,04,03,00,54,0.30
2007,04,03,00,55,0.20
2007,04,03,00,56,0.30
2007,04,03,00,57,0.20
2007,04,03,00,58,0.20
2007,04,03,00,59,0.20
2007,04,03,01,00,0.20
2007,04,03,01,01,0.20
2007,04,03,01,02,0.20
2007,04,03,01,03,0.20
2007,04,03,01,04,0.20
2007,04,03,01,05,0.20
2007,04,03,01,06,0.20
2007,04,03,01,07,0.20
2007,04,03,01,08,0.20
2007,04,03,01,09,0.20
2007,04,03,01,10,0.20
2007,04,03,01,11,0.20
2007,04,03,01,12,0.10
2007,04,03,01,13,0.10
2007,04,03,01,14,0.10
2007,04,03,01,15,0.10
2007,04,03,01,16,0.00
2007,04,03,01,17,0.00
2007,04,03,01,18,-0.10
2007,04,03,01,19,-0.10
2007,04,03,01,20,-0.20
2007,04,03,01,21,-0.20
2007,04,03,01,22,-0.20
2007,04,03,01,23,-0.20
2007,04,03,01,24,-0.20
2007,04,03,01,25,-0.20
2007,04,03,01,26,-0.30
2007,04,03,01,27,-0.30
2007,04,03,01,28,-0.30
2007,04,03,01,29,-0.20
2007,04,03,01,30,-0.30
2007,04,03,01,31,-0.30
2007,04,03,01,32,-0.30
2007,04,03,01,33,-0.30
2007,04,03,01,34,-0.20
2007,04,03,01,35,-0.20
2007,04,03,01,36,-0.20
2007,04,03,01,37,-0.20
2007,04,03,01,38,-0.20
2007,04,03,01,39,-0.20
2007,04,03,01,40,-0.20
2007,04,03,01,41,-0.20
2007,04,03,01,42,-0.20
2007,04,03,01,43,-0.20
2007,04,03,01,44,-0.20
2007,04,03,01,45,-0.20
2007,04,03,01,46,-0.20
2007,04,03,01,47,-0.20
2007,04,03,01,48,-0.20
2007,04,03,01,49,-0.20
2007,04,03,01,50,-0.30
2007,04,03,01,51,-0.30
2007,04,03,01,52,-0.30
2007,04,03,01,53,-0.30
2007,04,03,01,54,-0.30
2007,04,03,01,55,-0.30
2007,04,03,01,56,-0.30
2007,04,03,01,57,-0.30
2007,04,03,01,58,-0.40
2007,04,03,01,59,-0.40
2007,04,03,02,00,-0.40
2007,04,03,02,01,-0.40
2007,04,03,02,02,-0.40
2007,04,03,02,03,-0.40
2007,04,03,02,04,-0.40
2007,04,03,02,05,-0.50
2007,04,03,02,06,-0.50
2007,04,03,02,07,-0.50
2007,04,03,02,08,-0.50
2007,04,03,02,09,-0.50
2007,04,03,02,10,-0.50
2007,04,03,02,11,-0.50
2007,04,03,02,12,-0.50
2007,04,03,02,13,-0.60
2007,04,03,02,14,-0.60
2007,04,03,02,15,-0.60
2007,04,03,02,16,-0.60
2007,04,03,02,17,-0.60
2007,04,03,02,18,-0.70
2007,04,03,02,19,-0.70
2007,04,03,02,20,-0.70
2007,04,03,02,21,-0.70
2007,04,03,02,22,-0.70
2007,04,03,02,23,-0.70
2007,04,03,02,24,-0.70
2007,04,03,02,25,-0.70
2007,04,03,02,26,-0.70
2007,04,03,02,27,-0.70
2007,04,03,02,28,-0.80
2007,04,03,02,29,-0.80
2007,04,03,02,30,-0.80
2007,04,03,02,31,-0.80
2007,04,03,02,32,-0.90
2007,04,03,02,33,-0.90
2007,04,03,02,34,-0.90
2007,04,03,02,35,-0.90
2007,04,03,02,36,-0.90
2007,04,03,02,37,-0.90
2007,04,03,02,38,-0.90
2007,04,03,02,39,-0.90
2007,04,03,02,40,-1.00
2007,04,03,02,41,-0.90
2007,04,03,02,42,-0.90
2007,04,03,02,43,-0.90
2007,04,03,02,44,-0.90
2007,04,03,02,45,-0.90
2007,04,03,02,46,-0.80
2007,04,03,02,47,-0.80
2007,04,03,02,48,-0.80
2007,04,03,02,49,-0.70
2007,04,03,02,50,-0.70
2007,04,03,02,51,-0.70
2007,04,03,02,52,-0.70
2007,04,03,02,53,-0.70
2007,04,03,02,54,-0.70
2007,04,03,02,55,-0.70
2007,04,03,02,56,-0.70
2007,04,03,02,57,-0.70
2007,04,03,02,58,-0.70
2007,04,03,02,59,-0.70
2007,04,03,03,00,-0.70
2007,04,03,03,01,-0.70
2007,04,03,03,02,-0.70
2007,04,03,03,03,-0.70
2007,04,03,03,04,-0.70
2007,04,03,03,05,-0.70
2007,04,03,03,06,-0.70
2007,04,03,03,07,-0.70
2007,04,03,03,08,-0.70
2007,04,03,03,09,-0.70
2007,04,03,03,10,-0.70
2007,04,03,03,11,-0.70
2007,04,03,03,12,-0.70
2007,04,03,03,13,-0.60
2007,04,03,03,14,-0.60
2007,04,03,03,15,-0.60
2007,04,03,03,16,-0.60
2007,04,03,03,17,-0.60
2007,04,03,03,18,-0.70
2007,04,03,03,19,-0.70
2007,04,03,03,20,-0.70
2007,04,03,03,21,-0.70
2007,04,03,03,22,-0.70
2007,04,03,03,23,-0.80
2007,04,03,03,24,-0.80
2007,04,03,03,25,-0.80
2007,04,03,03,26,-0.80
2007,04,03,03,27,-0.70
2007,04,03,03,28,-0.70
2007,04,03,03,29,-0.70
2007,04,03,03,30,-0.70
2007,04,03,03,31,-0.70
2007,04,03,03,32,-0.60
2007,04,03,03,33,-0.60
2007,04,03,03,34,-0.60
2007,04,03,03,35,-0.60
2007,04,03,03,36,-0.60
2007,04,03,03,37,-0.60
2007,04,03,03,38,-0.60
2007,04,03,03,39,-0.50
2007,04,03,03,40,-0.50
2007,04,03,03,41,-0.50
2007,04,03,03,42,-0.50
2007,04,03,03,43,-0.50
2007,04,03,03,44,-0.50
2007,04,03,03,45,-0.50
2007,04,03,03,46,-0.50
2007,04,03,03,47,-0.50
2007,04,03,03,48,-0.50
2007,04,03,03,49,-0.50
2007,04,03,03,50,-0.50
2007,04,03,03,51,-0.50
2007,04,03,03,52,-0.60
2007,04,03,03,53,-0.60
2007,04,03,03,54,-0.60
2007,04,03,03,55,-0.60
2007,04,03,03,56,-0.60
2007,04,03,03,57,-0.70
2007,04,03,03,58,-0.70
2007,04,03,03,59,-0.70
2007,04,03,04,00,-0.70
2007,04,03,04,01,-0.70
2007,04,03,04,02,-0.80
2007,04,03,04,03,-0.80
2007,04,03,04,04,-0.80
2007,04,03,04,05,-0.80
2007,04,03,04,06,-0.80
2007,04,03,04,07,-0.80
2007,04,03,04,08,-0.90
2007,04,03,04,09,-0.90
2007,04,03,04,10,-0.90
2007,04,03,04,11,-0.90
2007,04,03,04,12,-0.90
2007,04,03,04,13,-0.90
2007,04,03,04,14,-1.00
2007,04,03,04,15,-1.00
2007,04,03,04,16,-1.00
2007,04,03,04,17,-1.00
2007,04,03,04,18,-1.00
2007,04,03,04,19,-1.10
2007,04,03,04,20,-1.10
2007,04,03,04,21,-1.10
2007,04,03,04,22,-1.10
2007,04,03,04,23,-1.10
2007,04,03,04,24,-1.10
2007,04,03,04,25,-1.00
2007,04,03,04,26,-1.00
2007,04,03,04,27,-1.10
2007,04,03,04,28,-1.10
2007,04,03,04,29,-1.00
2007,04,03,04,30,-1.10
2007,04,03,04,31,-1.10
2007,04,03,04,32,-1.10
2007,04,03,04,33,-1.10
2007,04,03,04,34,-1.10
2007,04,03,04,35,-1.10
2007,04,03,04,36,-1.10
2007,04,03,04,37,-1.10
2007,04,03,04,38,-1.10
2007,04,03,04,39,-1.10
2007,04,03,04,40,-1.10
2007,04,03,04,41,-1.10
2007,04,03,04,42,-1.10
2007,04,03,04,43,-1.10
2007,04,03,04,44,-1.10
2007,04,03,04,45,-1.10
2007,04,03,04,46,-1.10
2007,04,03,04,47,-1.10
2007,04,03,04,48,-1.10
2007,04,03,04,49,-1.10
2007,04,03,04,50,-1.10
2007,04,03,04,51,-1.10
2007,04,03,04,52,-1.20
2007,04,03,04,53,-1.20
2007,04,03,04,54,-1.20
2007,04,03,04,55,-1.20
2007,04,03,04,56,-1.20
2007,04,03,04,57,-1.20
2007,04,03,04,58,-1.20
2007,04,03,04,59,-1.20
2007,04,03,05,00,-1.20
2007,04,03,05,01,-1.20
2007,04,03,05,02,-1.20
2007,04,03,05,03,-1.20
2007,04,03,05,04,-1.20
2007,04,03,05,05,-1.20
2007,04,03,05,06,-1.20
2007,04,03,05,07,-1.20
2007,04,03,05,08,-1.20
2007,04,03,05,09,-1.20
2007,04,03,05,10,-1.20
2007,04,03,05,11,-1.20
2007,04,03,05,12,-1.20
2007,04,03,05,13,-1.20
2007,04,03,05,14,-1.20
2007,04,03,05,15,-1.20
2007,04,03,05,16,-1.20
2007,04,03,05,17,-1.20
2007,04,03,05,18,-1.10
2007,04,03,05,19,-1.10
2007,04,03,05,20,-1.10
2007,04,03,05,21,-1.10
2007,04,03,05,22,-1.10
2007,04,03,05,23,-1.10
2007,04,03,05,24,-1.10
2007,04,03,05,25,-1.10
2007,04,03,05,26,-1.00
2007,04,03,05,27,-1.00
2007,04,03,05,28,-1.00
2007,04,03,05,29,-1.00
2007,04,03,05,30,-1.00
2007,04,03,05,31,-1.00
2007,04,03,05,32,-1.10
2007,04,03,05,33,-1.10
2007,04,03,05,34,-1.10
2007,04,03,05,35,-1.10
2007,04,03,05,36,-1.10
2007,04,03,05,37,-1.10
2007,04,03,05,38,-1.10
2007,04,03,05,39,-1.10
2007,04,03,05,40,-1.10
2007,04,03,05,41,-1.10
2007,04,03,05,42,-1.10
2007,04,03,05,43,-1.10
2007,04,03,05,44,-1.20
2007,04,03,05,45,-1.20
2007,04,03,05,46,-1.20
2007,04,03,05,47,-1.20
2007,04,03,05,48,-1.20
2007,04,03,05,49,-1.20
2007,04,03,05,50,-1.20
2007,04,03,05,51,-1.20
2007,04,03,05,52,-1.20
2007,04,03,05,53,-1.20
2007,04,03,05,54,-1.20
2007,04,03,05,55,-1.20
2007,04,03,05,56,-1.20
2007,04,03,05,57,-1.20
2007,04,03,05,58,-1.20
2007,04,03,05,59,-1.10
2007,04,03,06,00,-1.10
2007,04,03,06,01,-1.10
2007,04,03,06,02,-1.10
2007,04,03,06,03,-1.10
2007,04,03,06,04,-1.10
2007,04,03,06,05,-1.10
2007,04,03,06,06,-1.00
2007,04,03,06,07,-1.00
2007,04,03,06,08,-1.00
2007,04,03,06,09,-1.00
2007,04,03,06,10,-1.00
2007,04,03,06,11,-1.00
2007,04,03,06,12,-1.00
2007,04,03,06,13,-1.00
2007,04,03,06,14,-1.00
2007,04,03,06,15,-0.90
2007,04,03,06,16,-0.90
2007,04,03,06,17,-0.90
2007,04,03,06,18,-0.90
2007,04,03,06,19,-0.90
2007,04,03,06,20,-0.90
2007,04,03,06,21,-0.90
2007,04,03,06,22,-0.90
2007,04,03,06,23,-0.80
2007,04,03,06,24,-0.80
2007,04,03,06,25,-0.80
2007,04,03,06,26,-0.80
2007,04,03,06,27,-0.80
2007,04,03,06,28,-0.80
2007,04,03,06,29,-0.80
2007,04,03,06,30,-0.80
2007,04,03,06,31,-0.80
2007,04,03,06,32,-0.80
2007,04,03,06,33,-0.80
2007,04,03,06,34,-0.80
2007,04,03,06,35,-0.70
2007,04,03,06,36,-0.80
2007,04,03,06,37,-0.70
2007,04,03,06,38,-0.70
2007,04,03,06,39,-0.70
2007,04,03,06,40,-0.70
2007,04,03,06,41,-0.70
2007,04,03,06,42,-0.70
2007,04,03,06,43,-0.70
2007,04,03,06,44,-0.70
2007,04,03,06,45,-0.70
2007,04,03,06,46,-0.70
2007,04,03,06,47,-0.60
2007,04,03,06,48,-0.60
2007,04,03,06,49,-0.60
2007,04,03,06,50,-0.60
2007,04,03,06,51,-0.60
2007,04,03,06,52,-0.60
2007,04,03,06,53,-0.60
2007,04,03,06,54,-0.60
2007,04,03,06,55,-0.60
2007,04,03,06,56,-0.60
2007,04,03,06,57,-0.50
2007,04,03,06,58,-0.50
2007,04,03,06,59,-0.50
2007,04,03,07,00,-0.50
2007,04,03,07,01,-0.50
2007,04,03,07,02,-0.50
2007,04,03,07,03,-0.50
2007,04,03,07,04,-0.50
2007,04,03,07,05,-0.50
2007,04,03,07,06,-0.50
2007,04,03,07,07,-0.50
2007,04,03,07,08,-0.40
2007,04,03,07,09,-0.40
2007,04,03,07,10,-0.40
2007,04,03,07,11,-0.40
2007,04,03,07,12,-0.40
2007,04,03,07,13,-0.40
2007,04,03,07,14,-0.30
2007,04,03,07,15,-0.30
2007,04,03,07,16,-0.30
2007,04,03,07,17,-0.30
2007,04,03,07,18,-0.30
2007,04,03,07,19,-0.30
2007,04,03,07,20,-0.30
2007,04,03,07,21,-0.30
2007,04,03,07,22,-0.30
2007,04,03,07,23,-0.30
2007,04,03,07,24,-0.30
2007,04,03,07,25,-0.30
2007,04,03,07,26,-0.30
2007,04,03,07,27,-0.30
2007,04,03,07,28,-0.30
2007,04,03,07,29,-0.30
2007,04,03,07,30,-0.30
2007,04,03,07,31,-0.30
2007,04,03,07,32,-0.20
2007,04,03,07,33,-0.20
2007,04,03,07,34,-0.20
2007,04,03,07,35,-0.20
2007,04,03,07,36,-0.20
2007,04,03,07,37,-0.20
2007,04,03,07,38,-0.10
2007,04,03,07,39,-0.10
2007,04,03,07,40,-0.10
2007,04,03,07,41,-0.10
2007,04,03,07,42,-0.10
2007,04,03,07,43,-0.10
2007,04,03,07,44,-0.10
2007,04,03,07,45,0.00
2007,04,03,07,46,0.00
2007,04,03,07,47,0.00
2007,04,03,07,48,0.00
2007,04,03,07,49,0.10
2007,04,03,07,50,0.10
2007,04,03,07,51,0.10
2007,04,03,07,52,0.10
2007,04,03,07,53,0.20
2007,04,03,07,54,0.20
2007,04,03,07,55,0.20
2007,04,03,07,56,0.20
2007,04,03,07,57,0.20
2007,04,03,07,58,0.20
2007,04,03,07,59,0.20
2007,04,03,08,00,0.30
2007,04,03,08,01,0.30
2007,04,03,08,02,0.30
2007,04,03,08,03,0.30
2007,04,03,08,04,0.30
2007,04,03,08,05,0.30
2007,04,03,08,06,0.40
2007,04,03,08,07,0.40
2007,04,03,08,08,0.40
2007,04,03,08,09,0.40
2007,04,03,08,10,0.40
2007,04,03,08,11,0.40
2007,04,03,08,12,0.50
2007,04,03,08,13,0.50
2007,04,03,08,14,0.50
2007,04,03,08,15,0.60
2007,04,03,08,16,0.60
2007,04,03,08,17,0.60
2007,04,03,08,18,0.60
2007,04,03,08,19,0.60
2007,04,03,08,20,0.70
2007,04,03,08,21,0.70
2007,04,03,08,22,0.70
2007,04,03,08,23,0.80
2007,04,03,08,24,0.80
2007,04,03,08,25,0.80
2007,04,03,08,26,0.90
2007,04,03,08,27,0.90
2007,04,03,08,28,1.00
2007,04,03,08,29,1.00
2007,04,03,08,30,1.00
2007,04,03,08,31,1.10
2007,04,03,08,32,1.10
2007,04,03,08,33,1.10
2007,04,03,08,34,1.20
2007,04,03,08,35,1.20
2007,04,03,08,36,1.30
2007,04,03,08,37,1.30
2007,04,03,08,38,1.30
2007,04,03,08,39,1.30
2007,04,03,08,40,1.40
2007,04,03,08,41,1.50
2007,04,03,08,42,1.60
2007,04,03,08,43,1.70
2007,04,03,08,44,1.70
2007,04,03,08,45,1.80
2007,04,03,08,46,1.80
2007,04,03,08,47,1.90
2007,04,03,08,48,1.90
2007,04,03,08,49,2.00
2007,04,03,08,50,2.00
2007,04,03,08,51,2.10
2007,04,03,08,52,2.10
2007,04,03,08,53,2.20
2007,04,03,08,54,2.20
2007,04,03,08,55,2.20
2007,04,03,08,56,2.30
2007,04,03,08,57,2.30
2007,04,03,08,58,2.30
2007,04,03,08,59,2.40
2007,04,03,09,00,2.40
2007,04,03,09,01,2.50
2007,04,03,09,02,2.50
2007,04,03,09,03,2.60
2007,04,03,09,04,2.60
2007,04,03,09,05,2.60
2007,04,03,09,06,2.70
2007,04,03,09,07,2.70
2007,04,03,09,08,2.80
2007,04,03,09,09,2.80
2007,04,03,09,10,2.90
2007,04,03,09,11,2.90
2007,04,03,09,12,3.00
2007,04,03,09,13,3.10
2007,04,03,09,14,3.10
2007,04,03,09,15,3.20
2007,04,03,09,16,3.20
2007,04,03,09,17,3.30
2007,04,03,09,18,3.40
2007,04,03,09,19,3.40
2007,04,03,09,20,3.50
2007,04,03,09,21,3.60
2007,04,03,09,22,3.60
2007,04,03,09,23,3.70
2007,04,03,09,24,3.80
2007,04,03,09,25,3.80
2007,04,03,09,26,3.90
2007,04,03,09,27,3.90
2007,04,03,09,28,3.90
2007,04,03,09,29,3.90
2007,04,03,09,30,4.00
2007,04,03,09,31,4.00
2007,04,03,09,32,4.00
2007,04,03,09,33,4.10
2007,04,03,09,34,4.10
2007,04,03,09,35,4.10
2007,04,03,09,36,4.20
2007,04,03,09,37,4.30
2007,04,03,09,38,4.40
2007,04,03,09,39,4.50
2007,04,03,09,40,4.60
2007,04,03,09,41,4.70
2007,04,03,09,42,4.80
2007,04,03,09,43,4.90
2007,04,03,09,44,4.90
2007,04,03,09,45,5.00
2007,04,03,09,46,5.00
2007,04,03,09,47,5.00
2007,04,03,09,48,5.00
2007,04,03,09,49,5.10
2007,04,03,09,50,5.10
2007,04,03,09,51,5.10
2007,04,03,09,52,5.10
2007,04,03,09,53,5.10
2007,04,03,09,54,5.10
2007,04,03,09,55,5.10
2007,04,03,09,56,5.10
2007,04,03,09,57,5.20
2007,04,03,09,58,5.20
2007,04,03,09,59,5.20
2007,04,03,10,00,5.30
2007,04,03,10,01,5.30
2007,04,03,10,02,5.30
2007,04,03,10,03,5.30
2007,04,03,10,04,5.30
2007,04,03,10,05,5.30
2007,04,03,10,06,5.40
2007,04,03,10,07,5.40
2007,04,03,10,08,5.40
2007,04,03,10,09,5.40
2007,04,03,10,10,5.40
2007,04,03,10,11,5.40
2007,04,03,10,12,5.40
2007,04,03,10,13,5.40
2007,04,03,10,14,5.40
2007,04,03,10,15,5.40
2007,04,03,10,16,5.40
2007,04,03,10,17,5.40
2007,04,03,10,18,5.40
2007,04,03,10,19,5.40
2007,04,03,10,20,5.40
2007,04,03,10,21,5.40
2007,04,03,10,22,5.30
2007,04,03,10,23,5.30
2007,04,03,10,24,5.30
2007,04,03,10,25,5.30
2007,04,03,10,26,5.20
2007,04,03,10,27,5.20
2007,04,03,10,28,5.20
2007,04,03,10,29,5.20
2007,04,03,10,30,5.30
2007,04,03,10,31,5.30
2007,04,03,10,32,5.40
2007,04,03,10,33,5.40
2007,04,03,10,34,5.40
2007,04,03,10,35,5.40
2007,04,03,10,36,5.40
2007,04,03,10,37,5.40
2007,04,03,10,38,5.50
2007,04,03,10,39,5.50
2007,04,03,10,40,5.50
2007,04,03,10,41,5.40
2007,04,03,10,42,5.40
2007,04,03,10,43,5.40
2007,04,03,10,44,5.50
2007,04,03,10,45,5.50
2007,04,03,10,46,5.60
2007,04,03,10,47,5.60
2007,04,03,10,48,5.70
2007,04,03,10,49,5.80
2007,04,03,10,50,5.80
2007,04,03,10,51,5.80
2007,04,03,10,52,5.90
2007,04,03,10,53,5.90
2007,04,03,10,54,6.00
2007,04,03,10,55,6.10
2007,04,03,10,56,6.20
2007,04,03,10,57,6.20
2007,04,03,10,58,6.30
2007,04,03,10,59,6.40
2007,04,03,11,00,6.40
2007,04,03,11,01,6.50
2007,04,03,11,02,6.60
2007,04,03,11,03,6.60
2007,04,03,11,04,6.70
2007,04,03,11,05,6.60
2007,04,03,11,06,6.60
2007,04,03,11,07,6.60
2007,04,03,11,08,6.60
2007,04,03,11,09,6.60
2007,04,03,11,10,6.60
2007,04,03,11,11,6.60
2007,04,03,11,12,6.60
2007,04,03,11,13,6.50
2007,04,03,11,14,6.60
2007,04,03,11,15,6.60
2007,04,03,11,16,6.60
2007,04,03,11,17,6.70
2007,04,03,11,18,6.70
2007,04,03,11,19,6.80
2007,04,03,11,20,6.80
2007,04,03,11,21,6.90
2007,04,03,11,22,6.90
2007,04,03,11,23,7.00
2007,04,03,11,24,7.00
2007,04,03,11,25,7.10
2007,04,03,11,26,7.10
2007,04,03,11,27,7.10
2007,04,03,11,28,7.10
2007,04,03,11,29,7.10
2007,04,03,11,30,7.20
2007,04,03,11,31,7.20
2007,04,03,11,32,7.20
2007,04,03,11,33,7.20
2007,04,03,11,34,7.30
2007,04,03,11,35,7.30
2007,04,03,11,36,7.30
2007,04,03,11,37,7.30
2007,04,03,11,38,7.30
2007,04,03,11,39,7.30
2007,04,03,11,40,7.20
2007,04,03,11,41,7.20
2007,04,03,11,42,7.20
2007,04,03,11,43,7.20
2007,04,03,11,44,7.20
2007,04,03,11,45,7.20
2007,04,03,11,46,7.20
2007,04,03,11,47,7.20
2007,04,03,11,48,7.20
2007,04,03,11,49,7.10
2007,04,03,11,50,7.00
2007,04,03,11,51,7.00
2007,04,03,11,52,7.00
2007,04,03,11,53,7.10
2007,04,03,11,54,7.20
2007,04,03,11,55,7.30
2007,04,03,11,56,7.30
2007,04,03,11,57,7.40
2007,04,03,11,58,7.50
2007,04,03,11,59,7.50
2007,04,03,12,00,7.60
2007,04,03,12,01,7.70
2007,04,03,12,02,7.60
2007,04,03,12,03,7.60
2007,04,03,12,04,7.60
2007,04,03,12,05,7.60
2007,04,03,12,06,7.70
2007,04,03,12,07,7.70
2007,04,03,12,08,7.70
2007,04,03,12,09,7.70
2007,04,03,12,10,7.80
2007,04,03,12,11,7.90
2007,04,03,12,12,7.80
2007,04,03,12,13,7.80
2007,04,03,12,14,7.80
2007,04,03,12,15,7.70
2007,04,03,12,16,7.60
2007,04,03,12,17,7.50
2007,04,03,12,18,7.50
2007,04,03,12,19,7.50
2007,04,03,12,20,7.50
2007,04,03,12,21,7.50
2007,04,03,12,22,7.60
2007,04,03,12,23,7.80
2007,04,03,12,24,7.80
2007,04,03,12,25,8.00
2007,04,03,12,26,8.10
2007,04,03,12,27,8.10
2007,04,03,12,28,8.20
2007,04,03,12,29,8.20
2007,04,03,12,30,8.20
2007,04,03,12,31,8.20
2007,04,03,12,32,8.30
2007,04,03,12,33,8.30
2007,04,03,12,34,8.30
2007,04,03,12,35,8.40
2007,04,03,12,36,8.40
2007,04,03,12,37,8.50
2007,04,03,12,38,8.60
2007,04,03,12,39,8.70
2007,04,03,12,40,8.80
2007,04,03,12,41,8.90
2007,04,03,12,42,8.90
2007,04,03,12,43,8.80
2007,04,03,12,44,8.80
2007,04,03,12,45,8.70
2007,04,03,12,46,8.70
2007,04,03,12,47,8.70
2007,04,03,12,48,8.70
2007,04,03,12,49,8.70
2007,04,03,12,50,8.70
2007,04,03,12,51,8.70
2007,04,03,12,52,8.80
2007,04,03,12,53,8.80
2007,04,03,12,54,8.90
2007,04,03,12,55,8.90
2007,04,03,12,56,8.90
2007,04,03,12,57,8.90
2007,04,03,12,58,8.90
2007,04,03,12,59,8.90
2007,04,03,13,00,8.90
2007,04,03,13,01,8.90
2007,04,03,13,02,8.90
2007,04,03,13,03,9.00
2007,04,03,13,04,9.00
2007,04,03,13,05,9.00
2007,04,03,13,06,8.90
2007,04,03,13,07,8.90
2007,04,03,13,08,9.00
2007,04,03,13,09,9.00
2007,04,03,13,10,9.10
2007,04,03,13,11,9.20
2007,04,03,13,12,9.40
2007,04,03,13,13,9.50
2007,04,03,13,14,9.60
2007,04,03,13,15,9.60
2007,04,03,13,16,9.60
2007,04,03,13,17,9.60
2007,04,03,13,18,9.50
2007,04,03,13,19,9.40
2007,04,03,13,20,9.30
2007,04,03,13,21,9.30
2007,04,03,13,22,9.30
2007,04,03,13,23,9.30
2007,04,03,13,24,9.20
2007,04,03,13,25,9.10
2007,04,03,13,26,9.10
2007,04,03,13,27,9.20
2007,04,03,13,28,9.20
2007,04,03,13,29,9.20
2007,04,03,13,30,9.30
2007,04,03,13,31,9.40
2007,04,03,13,32,9.50
2007,04,03,13,33,9.60
2007,04,03,13,34,9.60
2007,04,03,13,35,9.60
2007,04,03,13,36,9.70
2007,04,03,13,37,9.70
2007,04,03,13,38,9.70
2007,04,03,13,39,9.70
2007,04,03,13,40,9.70
2007,04,03,13,41,9.70
2007,04,03,13,42,9.80
2007,04,03,13,43,9.80
2007,04,03,13,44,9.90
2007,04,03,13,45,9.90
2007,04,03,13,46,9.90
2007,04,03,13,47,9.90
2007,04,03,13,48,9.90
2007,04,03,13,49,9.80
2007,04,03,13,50,9.80
2007,04,03,13,51,9.90
2007,04,03,13,52,9.90
2007,04,03,13,53,9.90
2007,04,03,13,54,9.90
2007,04,03,13,55,9.90
2007,04,03,13,56,9.90
2007,04,03,13,57,9.90
2007,04,03,13,58,9.90
2007,04,03,13,59,9.90
2007,04,03,14,00,9.90
2007,04,03,14,01,9.90
2007,04,03,14,02,10.00
2007,04,03,14,03,10.00
2007,04,03,14,04,10.10
2007,04,03,14,05,10.10
2007,04,03,14,06,10.20
2007,04,03,14,07,10.20
2007,04,03,14,08,10.20
2007,04,03,14,09,10.20
2007,04,03,14,10,10.10
2007,04,03,14,11,10.00
2007,04,03,14,12,10.00
2007,04,03,14,13,10.00
2007,04,03,14,14,10.00
2007,04,03,14,15,10.10
2007,04,03,14,16,10.00
2007,04,03,14,17,10.00
2007,04,03,14,18,9.90
2007,04,03,14,19,9.90
2007,04,03,14,20,9.90
2007,04,03,14,21,9.90
2007,04,03,14,22,9.90
2007,04,03,14,23,10.00
2007,04,03,14,24,10.10
2007,04,03,14,25,10.10
2007,04,03,14,26,10.20
2007,04,03,14,27,10.30
2007,04,03,14,28,10.40
2007,04,03,14,29,10.50
2007,04,03,14,30,10.50
2007,04,03,14,31,10.60
2007,04,03,14,32,10.70
2007,04,03,14,33,10.70
2007,04,03,14,34,10.80
2007,04,03,14,35,10.90
2007,04,03,14,36,10.90
2007,04,03,14,37,11.00
2007,04,03,14,38,11.10
2007,04,03,14,39,11.10
2007,04,03,14,40,11.10
2007,04,03,14,41,11.00
2007,04,03,14,42,10.90
2007,04,03,14,43,10.90
2007,04,03,14,44,10.80
2007,04,03,14,45,10.70
2007,04,03,14,46,10.50
2007,04,03,14,47,10.40
2007,04,03,14,48,10.40
2007,04,03,14,49,10.30
2007,04,03,14,50,10.30
2007,04,03,14,51,10.20
2007,04,03,14,52,10.20
2007,04,03,14,53,10.20
2007,04,03,14,54,10.20
2007,04,03,14,55,10.20
2007,04,03,14,56,10.30
2007,04,03,14,57,10.30
2007,04,03,14,58,10.30
2007,04,03,14,59,10.30
2007,04,03,15,00,10.40
2007,04,03,15,01,10.50
2007,04,03,15,02,10.50
2007,04,03,15,03,10.50
2007,04,03,15,04,10.40
2007,04,03,15,05,10.40
2007,04,03,15,06,10.50
2007,04,03,15,07,10.50
2007,04,03,15,08,10.50
2007,04,03,15,09,10.60
2007,04,03,15,10,10.60
2007,04,03,15,11,10.70
2007,04,03,15,12,10.70
2007,04,03,15,13,10.70
2007,04,03,15,14,10.80
2007,04,03,15,15,10.80
2007,04,03,15,16,10.90
2007,04,03,15,17,11.00
2007,04,03,15,18,11.00
2007,04,03,15,19,11.00
2007,04,03,15,20,11.00
2007,04,03,15,21,11.10
2007,04,03,15,22,11.10
2007,04,03,15,23,11.10
2007,04,03,15,24,11.10
2007,04,03,15,25,11.20
2007,04,03,15,26,11.20
2007,04,03,15,27,11.30
2007,04,03,15,28,11.30
2007,04,03,15,29,11.30
2007,04,03,15,30,11.30
2007,04,03,15,31,11.30
2007,04,03,15,32,11.30
2007,04,03,15,33,11.20
2007,04,03,15,34,11.10
2007,04,03,15,35,11.00
2007,04,03,15,36,10.90
2007,04,03,15,37,10.80
2007,04,03,15,38,10.80
2007,04,03,15,39,10.90
2007,04,03,15,40,10.90
2007,04,03,15,41,10.90
2007,04,03,15,42,10.90
2007,04,03,15,43,10.80
2007,04,03,15,44,10.80
2007,04,03,15,45,10.80
2007,04,03,15,46,10.80
2007,04,03,15,47,10.80
2007,04,03,15,48,10.80
2007,04,03,15,49,10.90
2007,04,03,15,50,10.90
2007,04,03,15,51,10.90
2007,04,03,15,52,10.90
2007,04,03,15,53,10.90
2007,04,03,15,54,10.90
2007,04,03,15,55,10.90
2007,04,03,15,56,10.90
2007,04,03,15,57,10.90
2007,04,03,15,58,11.00
2007,04,03,15,59,11.00
2007,04,03,16,00,11.10
2007,04,03,16,01,11.10
2007,04,03,16,02,11.10
2007,04,03,16,03,11.10
2007,04,03,16,04,11.20
2007,04,03,16,05,11.20
2007,04,03,16,06,11.30
2007,04,03,16,07,11.30
2007,04,03,16,08,11.30
2007,04,03,16,09,11.40
2007,04,03,16,10,11.50
2007,04,03,16,11,11.50
2007,04,03,16,12,11.50
2007,04,03,16,13,11.50
2007,04,03,16,14,11.40
2007,04,03,16,15,11.40
2007,04,03,16,16,11.30
2007,04,03,16,17,11.30
2007,04,03,16,18,11.30
2007,04,03,16,19,11.30
2007,04,03,16,20,11.30
2007,04,03,16,21,11.40
2007,04,03,16,22,11.50
2007,04,03,16,23,11.60
2007,04,03,16,24,11.60
2007,04,03,16,25,11.50
2007,04,03,16,26,11.30
2007,04,03,16,27,11.10
2007,04,03,16,28,11.00
2007,04,03,16,29,10.90
2007,04,03,16,30,10.80
2007,04,03,16,31,10.70
2007,04,03,16,32,10.60
2007,04,03,16,33,10.60
2007,04,03,16,34,10.60
2007,04,03,16,35,10.60
2007,04,03,16,36,10.60
2007,04,03,16,37,10.70
2007,04,03,16,38,10.70
2007,04,03,16,39,10.70
2007,04,03,16,40,10.70
2007,04,03,16,41,10.70
2007,04,03,16,42,10.70
2007,04,03,16,43,10.70
2007,04,03,16,44,10.70
2007,04,03,16,45,10.70
2007,04,03,16,46,10.70
2007,04,03,16,47,10.70
2007,04,03,16,48,10.70
2007,04,03,16,49,10.60
2007,04,03,16,50,10.60
2007,04,03,16,51,10.60
2007,04,03,16,52,10.60
2007,04,03,16,53,10.60
2007,04,03,16,54,10.60
2007,04,03,16,55,10.70
2007,04,03,16,56,10.60
2007,04,03,16,57,10.70
2007,04,03,16,58,10.70
2007,04,03,16,59,10.70
2007,04,03,17,00,10.80
2007,04,03,17,01,10.80
2007,04,03,17,02,10.80
2007,04,03,17,03,10.80
2007,04,03,17,04,10.90
2007,04,03,17,05,11.00
2007,04,03,17,06,11.00
2007,04,03,17,07,11.10
2007,04,03,17,08,11.20
2007,04,03,17,09,11.30
2007,04,03,17,10,11.40
2007,04,03,17,11,11.50
2007,04,03,17,12,11.60
2007,04,03,17,13,11.70
2007,04,03,17,14,11.70
2007,04,03,17,15,11.80
2007,04,03,17,16,11.80
2007,04,03,17,17,11.80
2007,04,03,17,18,11.80
2007,04,03,17,19,11.80
2007,04,03,17,20,11.80
2007,04,03,17,21,11.80
2007,04,03,17,22,11.80
2007,04,03,17,23,11.80
2007,04,03,17,24,11.80
2007,04,03,17,25,11.70
2007,04,03,17,26,11.60
2007,04,03,17,27,11.50
2007,04,03,17,28,11.40
2007,04,03,17,29,11.30
2007,04,03,17,30,11.20
2007,04,03,17,31,11.20
2007,04,03,17,32,11.10
2007,04,03,17,33,11.10
2007,04,03,17,34,11.00
2007,04,03,17,35,10.90
2007,04,03,17,36,10.90
2007,04,03,17,37,10.80
2007,04,03,17,38,10.70
2007,04,03,17,39,10.60